{"data":{"norad_id":61582,"intl_designator":"2024-187J","name":"STARLINK-11373 [DTC]","alt_names":[],"object_type":"PAYLOAD","status":"ACTIVE","operator":null,"country":"US","launch_date":"2024-10-18","launch_site_code":"AFETR","launch_vehicle":null,"mission":null,"orbit_class":"UNKNOWN","rcs_meters":null,"size_class":null,"mass_kg":null,"dimensions":null,"purposes":["comms"],"wikipedia_slug":null,"has_3d_model":false,"image_url":null,"decayed_at":null,"tle_current":{"epoch":"2026-05-24T18:12:23.811552Z","epoch_age_seconds":95680,"freshness":"FRESH","line1":"1 61582U 24187J   26144.75860893 -.00000394  00000+0  16074-5 0  9996","line2":"2 61582  53.1607 281.5631 0001114  88.6090 271.5056 15.69708293 92692","mean_motion":15.69708293,"eccentricity":0.0001114,"inclination_deg":53.1607,"raan_deg":281.5631,"arg_perigee_deg":88.609,"mean_anomaly_deg":271.5056,"bstar":1.6074e-6,"rev_number":9269,"period_min":91.736789976939,"perigee_km":358.98103663884,"apogee_km":360.48223377076,"semimajor_km":6737.8686352048,"source":"CELESTRAK","updated_at":"2026-05-25T13:38:19.403443Z"}}}